Location: New Town
(33.2710°N, 90.7534°W)
Time: 13:19:22
(UTC+00:00)

Explorer 11/Cluster Stage 4 - Pass Details

Date: 22 May 2021
Orbit: 467 x 1257 km, 28.8° (Epoch: 14 June)

Event Time Altitude Azimuth Distance (km) Brightness Sun altitude
Rises 00:15:10 0° 259° (W) 3,523 11.1 8.0°
Reaches altitude 10° 00:17:36 10° 256° (WSW) 2,693 10.4 7.5°
Maximum altitude 00:24:12 62° 177° (S) 1,225 7.6 6.2°
Drops below altitude 10° 00:32:02 10° 99° (E) 3,160 9.1 4.6°
Sets 00:35:06 0° 96° (E) 4,171 9.7 4.0°
